Weather in Angero-Sudgensk

Russia / Kemerovo Oblast     56°04′59″N   86°01′05″E
temp.,
°C
wind,
m/s
gust,
m/s
humid.,
%
clouds,
%
prec.,
mm/h
press.,
hPa
HPBL,
m
18 october, mon
mon1801:00+1ssw248228 0.0 102561
04:000ssw248427 0.0 102578
07:000ssw25855 0.0 102591
10:00+3ssw37735 0.0 1025232
13:00+7sw4662100 0.0 1025560
16:00+7sw376544 0.0 1025540
19:00+3ssw38867 0.0 1026183
22:00+2ssw3986100 0.0 1026197
19 october, tue
tue1901:00+1ssw38915 0.0 1027153
04:00+1ssw379337 0.0 1027143
07:000ssw389353 0.0 1028163
10:00+3ssw3980100 0.0 1028265
13:00+7ssw4763100 0.0 1027463
16:00+8ssw3863100 0.0 1026537
19:00+4s2781100 0.0 1026125
22:00+3ssw268422 0.0 1026101
20 october, wed
wed2001:00+2ssw24835 0.0 102568
04:00+2s23825 0.0 102536
07:00+2s22815 0.0 102425
10:00+4s256755 0.0 1023130
13:00+9s354536 0.0 1021388
16:00+10s354847 0.0 1019419
19:00+5s277263 0.0 1019114
22:00+4s298177 0.0 1019157
21 october, thu
thu2101:00+3s388660 0.0 1018124
04:00+2s388665 0.0 1018129
07:00+2s398561 0.0 1017162
10:00+5s3106666 0.0 1016249
13:00+10s4104690 0.0 1014395
16:00+11s4134992 0.0 1013642
19:00+8s41462100 0.0 1012411
22:00+8ssw41458100 0.0 1012391
22 october, fri
fri2201:00+7ssw4126097 0.0 1012276
04:00+6s31062100 0.0 1012207
07:00+6s41362100 0.0 1012288
10:00+8ssw41355100 0.0 1013500
13:00+10sw51056100 0.0 1014732
16:00+9sw3964100 0.0 1014688
19:00+7ssw3975100 0.0 1015391
22:00+7sw41172100 0.0 1015830